WXM80 ListenWXM80 Stop

You find our weather info also at:

UK Metoffice

WeatherCloud

Weather Underground

Northeastern Weather Network

AWEKAS

Citizen Weather Observer Program (CWOP)

HAMweather, WeatherForYou, PWS Weather


Weather Underground History page Text

Daily Summary for April 15, 2017 Units:  English    Metric   Both
« Previous Day
Next Day »
Daily Weekly Monthly Yearly Custom
  High: Low: Average:
Temperature: 64.3 °F 40.3 °F 53.8 °F
Dew Point: 53.3 °F 35.9 °F 43.5 °F
Humidity: 90 % 37 % 70 %
Wind Speed: 10.7 mph 0.0 mph 3.7 mph
Wind Gust: 21.9 mph - -
Wind:- - SSW
Pressure: 30.38 in 30.05 in -
Precipitation: 0.00 in    
Historical Graphs
 
 
Tabular Data for April 15, 2017
Time Temperature Dew Point Pressure Wind Wind Speed Wind Gust Humidity Rainfall Rate (Hourly)
00:00 46.7 °F 37.1 °F 30.37 in WSW 0.1 mph 1.2 mph 69 % 0.00 in
00:05 46.5 °F 37.2 °F 30.37 in WSW 0.1 mph 1.2 mph 70 % 0.00 in
00:10 46.3 °F 37.0 °F 30.37 in WSW 0.1 mph 1.0 mph 70 % 0.00 in
00:15 46.1 °F 37.2 °F 30.37 in Calm     71 % 0.00 in
00:20 45.9 °F 37.0 °F 30.37 in Calm     71 % 0.00 in
00:25 45.7 °F 37.2 °F 30.37 in Calm     72 % 0.00 in
00:30 45.4 °F 36.9 °F 30.38 in Calm     72 % 0.00 in
00:40 44.9 °F 36.8 °F 30.37 in Calm     73 % 0.00 in
00:45 44.7 °F 36.9 °F 30.37 in Calm     74 % 0.00 in
00:50 44.5 °F 36.7 °F 30.37 in Calm     74 % 0.00 in
00:55 44.3 °F 36.5 °F 30.37 in Calm     74 % 0.00 in
01:00 44.1 °F 36.7 °F 30.37 in Calm     75 % 0.00 in
01:05 43.8 °F 36.4 °F 30.37 in Calm     75 % 0.00 in
01:10 43.7 °F 36.3 °F 30.37 in Calm     75 % 0.00 in
01:15 43.5 °F 36.4 °F 30.37 in Calm     76 % 0.00 in
01:21 43.4 °F 36.3 °F 30.37 in Calm     76 % 0.00 in
01:26 43.2 °F 36.1 °F 30.37 in Calm     76 % 0.00 in
01:31 43.1 °F 36.4 °F 30.37 in Calm     77 % 0.00 in
01:36 42.9 °F 36.2 °F 30.37 in Calm     77 % 0.00 in
01:41 42.7 °F 36.3 °F 30.37 in Calm     78 % 0.00 in
01:46 42.5 °F 36.1 °F 30.37 in Calm     78 % 0.00 in
01:51 42.4 °F 36.0 °F 30.37 in Calm     78 % 0.00 in
01:56 42.3 °F 36.3 °F 30.37 in Calm     79 % 0.00 in
02:01 42.1 °F 36.1 °F 30.37 in Calm     79 % 0.00 in
02:06 42.0 °F 36.0 °F 30.37 in Calm     79 % 0.00 in
02:11 41.9 °F 35.9 °F 30.36 in Calm     79 % 0.00 in
02:16 41.8 °F 36.1 °F 30.37 in Calm     80 % 0.00 in
02:21 41.7 °F 36.3 °F 30.36 in Calm     81 % 0.00 in
02:26 41.6 °F 36.5 °F 30.37 in Calm   1.2 mph 82 % 0.00 in
02:31 41.5 °F 36.7 °F 30.37 in Calm     83 % 0.00 in
02:36 41.5 °F 36.7 °F 30.37 in Calm     83 % 0.00 in
02:41 41.4 °F 36.6 °F 30.36 in WSW 0.2 mph 1.2 mph 83 % 0.00 in
02:47 41.4 °F 36.9 °F 30.36 in Calm   1.2 mph 84 % 0.00 in
02:52 41.4 °F 36.9 °F 30.37 in WSW 0.2 mph 1.0 mph 84 % 0.00 in
02:57 41.4 °F 36.9 °F 30.36 in Calm     84 % 0.00 in
03:02 41.4 °F 36.9 °F 30.36 in Calm     84 % 0.00 in
03:07 41.4 °F 36.9 °F 30.36 in Calm     84 % 0.00 in
03:12 41.4 °F 36.9 °F 30.36 in Calm     84 % 0.00 in
03:17 41.4 °F 36.9 °F 30.36 in Calm     84 % 0.00 in
03:22 41.5 °F 37.0 °F 30.36 in Calm     84 % 0.00 in
03:27 41.5 °F 37.0 °F 30.36 in Calm   1.0 mph 84 % 0.00 in
03:32 41.5 °F 37.1 °F 30.36 in Calm   1.0 mph 84 % 0.00 in
03:37 41.6 °F 37.1 °F 30.36 in WSW 0.1 mph 1.0 mph 84 % 0.00 in
03:42 41.6 °F 37.1 °F 30.36 in Calm   1.0 mph 84 % 0.00 in
03:47 41.7 °F 37.2 °F 30.36 in Calm   1.0 mph 84 % 0.00 in
03:52 41.8 °F 37.3 °F 30.36 in Calm   2.0 mph 84 % 0.00 in
03:57 41.8 °F 37.3 °F 30.36 in Calm   1.2 mph 84 % 0.00 in
04:02 41.9 °F 37.4 °F 30.36 in WSW 0.4 mph 2.3 mph 84 % 0.00 in
04:07 42.0 °F 37.8 °F 30.36 in Calm   1.2 mph 85 % 0.00 in
04:12 42.0 °F 37.5 °F 30.36 in Calm     84 % 0.00 in
04:17 42.0 °F 37.5 °F 30.36 in Calm     84 % 0.00 in
04:22 42.0 °F 37.5 °F 30.36 in Calm     84 % 0.00 in
04:27 42.0 °F 37.5 °F 30.36 in Calm     84 % 0.00 in
04:32 41.9 °F 37.4 °F 30.36 in Calm     84 % 0.00 in
04:37 41.9 °F 37.1 °F 30.36 in Calm     83 % 0.00 in
04:42 41.8 °F 37.0 °F 30.36 in Calm     83 % 0.00 in
04:47 41.8 °F 37.0 °F 30.36 in Calm     83 % 0.00 in
04:52 41.7 °F 36.9 °F 30.35 in Calm     83 % 0.00 in
04:57 41.6 °F 36.8 °F 30.35 in Calm     83 % 0.00 in
05:02 41.6 °F 37.1 °F 30.35 in Calm     84 % 0.00 in
05:07 41.5 °F 37.0 °F 30.35 in Calm   1.2 mph 84 % 0.00 in
05:13 41.4 °F 36.9 °F 30.35 in Calm   1.2 mph 84 % 0.00 in
05:18 41.3 °F 36.8 °F 30.35 in WSW 0.2 mph 2.3 mph 84 % 0.00 in
05:23 41.2 °F 36.7 °F 30.35 in Calm   2.3 mph 84 % 0.00 in
05:28 41.2 °F 37.0 °F 30.35 in Calm     85 % 0.00 in
05:33 41.1 °F 36.9 °F 30.35 in Calm     85 % 0.00 in
05:38 41.1 °F 36.9 °F 30.35 in WSW 0.1 mph 1.2 mph 85 % 0.00 in
05:43 41.0 °F 36.5 °F 30.35 in Calm     84 % 0.00 in
05:48 40.9 °F 36.4 °F 30.36 in WSW 0.4 mph 1.2 mph 84 % 0.00 in
05:53 40.9 °F 36.7 °F 30.36 in Calm   1.2 mph 85 % 0.00 in
05:58 40.7 °F 36.5 °F 30.36 in Calm     85 % 0.00 in
06:03 40.7 °F 36.5 °F 30.36 in Calm     85 % 0.00 in
06:08 40.6 °F 36.4 °F 30.35 in Calm     85 % 0.00 in
06:13 40.5 °F 36.6 °F 30.35 in Calm     86 % 0.00 in
06:18 40.5 °F 36.6 °F 30.35 in Calm     86 % 0.00 in
06:23 40.4 °F 36.5 °F 30.35 in Calm   1.2 mph 86 % 0.00 in
06:28 40.4 °F 36.5 °F 30.35 in WSW 0.2 mph 1.2 mph 86 % 0.00 in
06:33 40.3 °F 36.4 °F 30.35 in Calm     86 % 0.00 in
06:38 40.3 °F 36.4 °F 30.35 in WSW 0.7 mph 2.3 mph 86 % 0.00 in
06:43 40.3 °F 36.7 °F 30.35 in WSW 0.8 mph 2.3 mph 87 % 0.00 in
06:44 40.4 °F 36.8 °F 30.35 in WSW 0.1 mph 1.2 mph 87 % 0.00 in
06:49 40.6 °F 37.3 °F 30.36 in SW 0.6 mph 2.3 mph 88 % 0.00 in
06:54 40.8 °F 37.5 °F 30.35 in Calm   2.0 mph 88 % 0.00 in
06:59 41.1 °F 38.1 °F 30.36 in SW 0.6 mph 3.0 mph 89 % 0.00 in
07:05 41.5 °F 38.5 °F 30.36 in SW 0.6 mph 2.3 mph 89 % 0.00 in
07:10 42.0 °F 39.3 °F 30.36 in SW 0.1 mph 1.0 mph 90 % 0.00 in
07:15 42.5 °F 39.8 °F 30.36 in SW 0.2 mph 1.2 mph 90 % 0.00 in
07:20 43.1 °F 40.4 °F 30.36 in SW 0.1 mph 1.2 mph 90 % 0.00 in
07:25 43.5 °F 40.8 °F 30.36 in SW 0.2 mph 1.2 mph 90 % 0.00 in
07:30 44.2 °F 41.5 °F 30.36 in SW 0.5 mph 1.2 mph 90 % 0.00 in
07:35 44.9 °F 41.9 °F 30.37 in South 1.5 mph 3.5 mph 89 % 0.00 in
07:40 45.6 °F 42.3 °F 30.37 in South 0.2 mph 2.3 mph 88 % 0.00 in
07:45 46.2 °F 42.5 °F 30.37 in South 2.4 mph 4.6 mph 87 % 0.00 in
07:50 46.9 °F 42.9 °F 30.37 in SSW 0.7 mph 3.5 mph 86 % 0.00 in
07:55 47.6 °F 43.3 °F 30.37 in South 1.8 mph 4.0 mph 85 % 0.00 in
08:00 48.4 °F 43.2 °F 30.37 in South 1.2 mph 4.0 mph 82 % 0.00 in
08:05 49.2 °F 43.6 °F 30.37 in South 0.6 mph 2.0 mph 81 % 0.00 in
08:07 49.4 °F 43.5 °F 30.37 in WSW 2.3 mph 3.5 mph 80 % 0.00 in
08:12 50.3 °F 43.4 °F 30.37 in SSW 1.8 mph 5.8 mph 77 % 0.00 in
08:17 50.9 °F 43.3 °F 30.37 in SW 4.4 mph 6.9 mph 75 % 0.00 in
08:22 51.6 °F 43.6 °F 30.37 in SW 4.4 mph 5.8 mph 74 % 0.00 in
08:27 52.4 °F 44.0 °F 30.37 in South 2.6 mph 6.9 mph 73 % 0.00 in
08:32 53.0 °F 44.2 °F 30.36 in SSW 3.0 mph 5.8 mph 72 % 0.00 in
08:37 53.7 °F 44.1 °F 30.37 in SW 3.3 mph 5.8 mph 70 % 0.00 in
08:42 54.1 °F 43.4 °F 30.36 in WSW 4.4 mph 8.0 mph 67 % 0.00 in
08:47 54.8 °F 43.7 °F 30.36 in SSW 4.1 mph 6.9 mph 66 % 0.00 in
08:52 55.4 °F 43.0 °F 30.36 in SW 4.5 mph 8.1 mph 63 % 0.00 in
08:57 56.1 °F 42.8 °F 30.36 in SSW 6.6 mph 8.1 mph 61 % 0.00 in
09:02 56.7 °F 43.0 °F 30.36 in SW 6.3 mph 8.0 mph 60 % 0.00 in
09:07 57.2 °F 43.4 °F 30.36 in SSW 6.9 mph 11.0 mph 60 % 0.00 in
09:12 57.4 °F 42.7 °F 30.36 in SW 7.0 mph 12.0 mph 58 % 0.00 in
09:17 57.7 °F 42.6 °F 30.36 in SSW 8.0 mph 14.0 mph 57 % 0.00 in
09:22 57.9 °F 42.8 °F 30.36 in SSW 8.0 mph 14.0 mph 57 % 0.00 in
09:27 58.2 °F 42.6 °F 30.36 in SSW 5.0 mph 17.0 mph 56 % 0.00 in
09:32 58.7 °F 44.0 °F 30.36 in SSW 7.0 mph 9.0 mph 58 % 0.00 in
09:37 59.4 °F 43.7 °F 30.36 in South 2.2 mph 4.6 mph 56 % 0.00 in
09:42 60.1 °F 42.9 °F 30.36 in SSW 3.0 mph 7.0 mph 53 % 0.00 in
09:47 61.2 °F 44.9 °F 30.35 in SSW 3.9 mph 5.8 mph 55 % 0.00 in
09:52 61.8 °F 43.0 °F 30.35 in SSW 6.0 mph 15.0 mph 50 % 0.00 in
09:57 62.1 °F 43.2 °F 30.35 in SSW 5.6 mph 11.0 mph 50 % 0.00 in
10:02 62.1 °F 43.2 °F 30.35 in SE 6.8 mph 12.7 mph 50 % 0.00 in
10:07 62.3 °F 43.4 °F 30.35 in SSW 7.0 mph 14.0 mph 50 % 0.00 in
10:12 62.4 °F 42.4 °F 30.35 in SSW 6.0 mph 14.0 mph 48 % 0.00 in
10:17 62.5 °F 42.5 °F 30.35 in South 6.2 mph 12.7 mph 48 % 0.00 in
10:22 62.7 °F 43.8 °F 30.35 in SSW 6.0 mph 7.0 mph 50 % 0.00 in
10:27 62.7 °F 42.2 °F 30.35 in SSW 5.0 mph 13.0 mph 47 % 0.00 in
10:32 62.9 °F 41.2 °F 30.35 in SSW 6.0 mph 10.4 mph 45 % 0.00 in
10:37 63.0 °F 40.7 °F 30.35 in SW 8.1 mph 8.1 mph 44 % 0.00 in
10:42 63.2 °F 39.1 °F 30.35 in SW 8.3 mph 11.5 mph 41 % 0.00 in
10:47 63.5 °F 40.0 °F 30.35 in SSW 4.6 mph 11.5 mph 42 % 0.00 in
10:52 63.8 °F 39.6 °F 30.35 in WNW 5.5 mph 12.7 mph 41 % 0.00 in
10:57 64.0 °F 39.2 °F 30.34 in SW 7.4 mph 9.0 mph 40 % 0.00 in
11:02 63.9 °F 39.7 °F 30.34 in SW 6.9 mph 9.2 mph 41 % 0.00 in
11:07 63.9 °F 39.7 °F 30.34 in SSW 4.6 mph 11.5 mph 41 % 0.00 in
11:12 63.8 °F 40.3 °F 30.34 in SSW 5.0 mph 7.0 mph 42 % 0.00 in
11:17 63.9 °F 40.3 °F 30.34 in South 5.8 mph 9.2 mph 42 % 0.00 in
11:22 63.8 °F 39.6 °F 30.33 in SSW 5.1 mph 8.1 mph 41 % 0.00 in
11:27 64.0 °F 39.8 °F 30.33 in SW 7.0 mph 15.0 mph 41 % 0.00 in
11:32 64.0 °F 38.5 °F 30.33 in SSW 5.0 mph 15.0 mph 39 % 0.00 in
11:37 64.1 °F 38.0 °F 30.33 in SSW 7.0 mph 12.0 mph 38 % 0.00 in
11:42 64.3 °F 38.8 °F 30.33 in SSW 3.0 mph 9.0 mph 39 % 0.00 in
11:47 64.2 °F 38.7 °F 30.33 in South 7.0 mph 10.0 mph 39 % 0.00 in
11:52 64.0 °F 38.6 °F 30.32 in South 3.0 mph 9.0 mph 39 % 0.00 in
11:57 63.6 °F 38.2 °F 30.32 in SSW 6.8 mph 13.8 mph 39 % 0.00 in
12:02 63.5 °F 38.7 °F 30.32 in South 6.3 mph 10.4 mph 40 % 0.00 in
12:07 63.3 °F 37.9 °F 30.32 in SSW 7.9 mph 11.5 mph 39 % 0.00 in
12:12 62.9 °F 38.2 °F 30.31 in SW 5.7 mph 8.0 mph 40 % 0.00 in
12:17 62.6 °F 37.3 °F 30.31 in SSE 4.9 mph 9.2 mph 39 % 0.00 in
12:22 62.7 °F 37.4 °F 30.31 in SSW 4.7 mph 7.0 mph 39 % 0.00 in
12:27 63.0 °F 38.9 °F 30.30 in SSE 4.8 mph 7.0 mph 41 % 0.00 in
12:32 63.1 °F 37.7 °F 30.30 in SSW 4.9 mph 8.1 mph 39 % 0.00 in
12:37 63.4 °F 37.3 °F 30.30 in SW 5.4 mph 6.9 mph 38 % 0.00 in
12:42 63.7 °F 37.6 °F 30.30 in South 3.2 mph 8.1 mph 38 % 0.00 in
12:47 63.8 °F 37.0 °F 30.30 in SSW 4.2 mph 9.2 mph 37 % 0.00 in
12:53 63.6 °F 36.8 °F 30.30 in SSW 6.8 mph 10.4 mph 37 % 0.00 in
12:58 63.1 °F 38.4 °F 30.29 in South 4.3 mph 6.9 mph 40 % 0.00 in
13:03 62.9 °F 38.8 °F 30.29 in SSW 4.2 mph 7.0 mph 41 % 0.00 in
13:08 62.9 °F 39.4 °F 30.28 in South 4.8 mph 11.5 mph 42 % 0.00 in
13:13 63.1 °F 39.6 °F 30.29 in SSE 4.9 mph 7.0 mph 42 % 0.00 in
13:18 63.0 °F 38.9 °F 30.29 in SSW 5.7 mph 10.4 mph 41 % 0.00 in
13:23 62.9 °F 40.0 °F 30.29 in South 9.3 mph 11.5 mph 43 % 0.00 in
13:28 62.8 °F 40.0 °F 30.28 in SSW 3.2 mph 6.9 mph 43 % 0.00 in
13:33 63.0 °F 40.1 °F 30.28 in SSW 4.7 mph 7.0 mph 43 % 0.00 in
13:38 63.1 °F 40.8 °F 30.28 in SSW 7.7 mph 11.5 mph 44 % 0.00 in
13:43 62.9 °F 41.8 °F 30.28 in South 10.7 mph 13.8 mph 46 % 0.00 in
13:48 62.4 °F 41.9 °F 30.28 in South 8.3 mph 16.1 mph 47 % 0.00 in
13:53 62.0 °F 42.1 °F 30.29 in SW 9.9 mph 16.0 mph 48 % 0.00 in
13:58 61.8 °F 43.0 °F 30.29 in South 3.2 mph 9.0 mph 50 % 0.00 in
14:03 61.6 °F 42.8 °F 30.28 in SSW 5.0 mph 11.5 mph 50 % 0.00 in
14:08 61.5 °F 43.7 °F 30.28 in SW 5.0 mph 13.0 mph 52 % 0.00 in
14:13 61.5 °F 43.7 °F 30.27 in SSW 6.9 mph 10.4 mph 52 % 0.00 in
14:18 61.5 °F 44.7 °F 30.26 in South 4.7 mph 11.5 mph 54 % 0.00 in
14:23 61.8 °F 45.5 °F 30.26 in South 6.0 mph 9.2 mph 55 % 0.00 in
14:28 62.1 °F 45.7 °F 30.26 in South 5.4 mph 8.1 mph 55 % 0.00 in
14:33 62.1 °F 45.7 °F 30.25 in South 6.5 mph 6.9 mph 55 % 0.00 in
14:38 62.1 °F 45.7 °F 30.25 in SW 10.6 mph 12.0 mph 55 % 0.00 in
14:43 61.8 °F 45.5 °F 30.25 in SSW 8.1 mph 11.5 mph 55 % 0.00 in
14:48 61.8 °F 45.9 °F 30.25 in SSE 5.1 mph 11.5 mph 56 % 0.00 in
14:53 61.8 °F 45.0 °F 30.24 in SSW 4.3 mph 8.1 mph 54 % 0.00 in
14:58 61.7 °F 45.4 °F 30.24 in South 5.4 mph 11.0 mph 55 % 0.00 in
15:03 61.6 °F 44.8 °F 30.24 in South 7.2 mph 9.2 mph 54 % 0.00 in
15:08 61.3 °F 44.0 °F 30.24 in South 5.5 mph 10.4 mph 53 % 0.00 in
15:13 61.0 °F 44.2 °F 30.24 in SSE 6.6 mph 9.2 mph 54 % 0.00 in
15:18 60.9 °F 44.6 °F 30.23 in SW 4.5 mph 11.5 mph 55 % 0.00 in
15:23 61.2 °F 45.8 °F 30.22 in SW 3.0 mph 4.6 mph 57 % 0.00 in
15:28 61.6 °F 46.7 °F 30.22 in South 3.7 mph 6.9 mph 58 % 0.00 in
15:33 62.1 °F 46.7 °F 30.22 in ESE 4.7 mph 8.1 mph 57 % 0.00 in
15:38 62.2 °F 46.8 °F 30.21 in SSW 4.8 mph 8.0 mph 57 % 0.00 in
15:43 62.2 °F 46.8 °F 30.21 in SSW 6.4 mph 7.0 mph 57 % 0.00 in
15:48 62.1 °F 47.1 °F 30.20 in SSW 1.6 mph 6.9 mph 58 % 0.00 in
15:53 62.2 °F 46.8 °F 30.20 in SSW 3.0 mph 12.7 mph 57 % 0.00 in
15:56 62.3 °F 47.8 °F 30.20 in SSW 5.2 mph 10.4 mph 59 % 0.00 in
16:01 62.5 °F 47.5 °F 30.20 in SSW 6.2 mph 10.4 mph 58 % 0.00 in
16:07 62.6 °F 47.6 °F 30.20 in South 6.5 mph 11.5 mph 58 % 0.00 in
16:12 62.5 °F 48.0 °F 30.20 in South 2.1 mph 6.0 mph 59 % 0.00 in
16:17 62.5 °F 48.4 °F 30.19 in South 4.0 mph 8.1 mph 60 % 0.00 in
16:22 62.3 °F 47.8 °F 30.19 in SSW 5.3 mph 14.0 mph 59 % 0.00 in
16:27 62.2 °F 48.1 °F 30.19 in SW 4.9 mph 10.4 mph 60 % 0.00 in
16:32 62.0 °F 48.4 °F 30.19 in SW 7.0 mph 12.0 mph 61 % 0.00 in
16:37 61.7 °F 48.1 °F 30.18 in SW 6.9 mph 17.3 mph 61 % 0.00 in
16:42 61.3 °F 48.2 °F 30.18 in SSW 4.5 mph 13.8 mph 62 % 0.00 in
16:47 61.1 °F 48.4 °F 30.18 in SSW 6.6 mph 13.8 mph 63 % 0.00 in
16:52 61.0 °F 48.7 °F 30.18 in South 8.8 mph 19.0 mph 64 % 0.00 in
16:57 60.7 °F 48.4 °F 30.17 in SSW 7.5 mph 10.4 mph 64 % 0.00 in
17:02 60.6 °F 48.8 °F 30.17 in SSE 5.1 mph 11.5 mph 65 % 0.00 in
17:07 60.3 °F 48.9 °F 30.17 in South 7.7 mph 15.0 mph 66 % 0.00 in
17:12 60.0 °F 49.0 °F 30.17 in South 10.1 mph 15.0 mph 67 % 0.00 in
17:17 59.8 °F 48.8 °F 30.17 in SW 7.6 mph 15.0 mph 67 % 0.00 in
17:22 59.6 °F 49.0 °F 30.17 in SSW 6.5 mph 10.4 mph 68 % 0.00 in
17:27 59.5 °F 48.9 °F 30.17 in WSW 6.9 mph 21.9 mph 68 % 0.00 in
17:32 59.3 °F 49.1 °F 30.17 in South 5.5 mph 9.2 mph 69 % 0.00 in
17:37 59.1 °F 49.3 °F 30.16 in South 6.6 mph 15.0 mph 70 % 0.00 in
17:42 59.0 °F 50.0 °F 30.15 in SSW 3.5 mph 8.1 mph 72 % 0.00 in
17:47 58.8 °F 50.2 °F 30.16 in SW 7.5 mph 12.7 mph 73 % 0.00 in
17:52 58.6 °F 50.0 °F 30.16 in SSW 4.4 mph 10.4 mph 73 % 0.00 in
17:57 58.4 °F 49.8 °F 30.16 in South 5.6 mph 11.5 mph 73 % 0.00 in
18:02 58.3 °F 50.0 °F 30.16 in SSW 6.4 mph 11.5 mph 74 % 0.00 in
18:07 58.1 °F 49.9 °F 30.16 in SSE 7.2 mph 12.0 mph 74 % 0.00 in
18:12 57.8 °F 49.6 °F 30.16 in SSE 4.6 mph 11.5 mph 74 % 0.00 in
18:17 57.7 °F 49.8 °F 30.16 in SSW 5.2 mph 9.2 mph 75 % 0.00 in
18:22 57.6 °F 49.7 °F 30.16 in SSW 6.0 mph 12.0 mph 75 % 0.00 in
18:27 57.5 °F 49.6 °F 30.16 in South 6.7 mph 8.0 mph 75 % 0.00 in
18:32 57.4 °F 49.5 °F 30.15 in SSW 4.6 mph 11.5 mph 75 % 0.00 in
18:37 57.3 °F 49.5 °F 30.15 in SSW 8.0 mph 14.0 mph 75 % 0.00 in
18:42 57.2 °F 49.7 °F 30.15 in South 6.0 mph 12.7 mph 76 % 0.00 in
18:47 57.2 °F 49.7 °F 30.15 in South 8.9 mph 16.1 mph 76 % 0.00 in
18:52 57.1 °F 50.0 °F 30.15 in SSW 7.0 mph 15.0 mph 77 % 0.00 in
18:57 57.1 °F 50.0 °F 30.15 in South 6.6 mph 11.5 mph 77 % 0.00 in
19:02 57.0 °F 50.2 °F 30.15 in SW 6.2 mph 12.7 mph 78 % 0.00 in
19:07 57.0 °F 50.2 °F 30.14 in South 6.8 mph 13.8 mph 78 % 0.00 in
19:12 57.0 °F 50.2 °F 30.14 in South 6.2 mph 10.4 mph 78 % 0.00 in
19:17 56.9 °F 50.5 °F 30.14 in SSW 2.6 mph 5.8 mph 79 % 0.00 in
19:22 56.9 °F 50.5 °F 30.14 in South 4.9 mph 6.9 mph 79 % 0.00 in
19:28 56.9 °F 50.5 °F 30.15 in SSW 5.9 mph 11.5 mph 79 % 0.00 in
19:32 56.9 °F 50.5 °F 30.14 in SW 3.2 mph 8.1 mph 79 % 0.00 in
19:37 56.9 °F 50.8 °F 30.14 in SSW 7.0 mph 12.7 mph 80 % 0.00 in
19:42 57.0 °F 50.9 °F 30.14 in SW 6.3 mph 17.0 mph 80 % 0.00 in
19:47 57.0 °F 50.9 °F 30.13 in SSW 5.4 mph 8.1 mph 80 % 0.00 in
19:52 57.0 °F 50.9 °F 30.12 in SSW 6.6 mph 12.7 mph 80 % 0.00 in
19:57 57.1 °F 51.0 °F 30.12 in South 5.0 mph 7.0 mph 80 % 0.00 in
20:02 57.1 °F 51.3 °F 30.12 in South 6.2 mph 10.4 mph 81 % 0.00 in
20:07 57.0 °F 51.2 °F 30.11 in SSW 5.0 mph 11.5 mph 81 % 0.00 in
20:12 57.0 °F 51.2 °F 30.12 in SW 6.1 mph 9.2 mph 81 % 0.00 in
20:18 56.9 °F 51.5 °F 30.11 in SW 6.9 mph 13.8 mph 82 % 0.00 in
20:23 56.9 °F 51.5 °F 30.11 in SSW 4.4 mph 8.1 mph 82 % 0.00 in
20:28 56.8 °F 51.4 °F 30.12 in SSW 7.2 mph 11.5 mph 82 % 0.00 in
20:32 56.8 °F 51.4 °F 30.11 in SSW 4.4 mph 9.2 mph 82 % 0.00 in
20:37 56.8 °F 51.4 °F 30.11 in South 4.3 mph 6.9 mph 82 % 0.00 in
20:43 56.8 °F 51.7 °F 30.11 in SW 5.3 mph 7.0 mph 83 % 0.00 in
20:48 56.9 °F 51.8 °F 30.10 in SSW 3.4 mph 10.4 mph 83 % 0.00 in
20:53 57.0 °F 52.2 °F 30.10 in South 4.2 mph 10.4 mph 84 % 0.00 in
20:58 57.1 °F 52.3 °F 30.10 in SSW 8.2 mph 12.7 mph 84 % 0.00 in
21:03 57.2 °F 52.4 °F 30.10 in SW 4.8 mph 8.1 mph 84 % 0.00 in
21:08 57.4 °F 52.6 °F 30.09 in SW 6.0 mph 13.8 mph 84 % 0.00 in
21:13 57.6 °F 52.8 °F 30.09 in South 8.4 mph 19.6 mph 84 % 0.00 in
21:18 57.8 °F 53.3 °F 30.09 in South 9.8 mph 15.0 mph 85 % 0.00 in
21:23 57.9 °F 53.1 °F 30.09 in SSW 7.4 mph 17.3 mph 84 % 0.00 in
21:28 57.9 °F 53.1 °F 30.09 in South 6.7 mph 12.7 mph 84 % 0.00 in
21:33 58.0 °F 53.2 °F 30.09 in SSW 6.1 mph 12.7 mph 84 % 0.00 in
21:38 58.0 °F 53.2 °F 30.08 in SW 8.5 mph 11.5 mph 84 % 0.00 in
21:43 58.0 °F 53.2 °F 30.08 in SSW 8.1 mph 15.0 mph 84 % 0.00 in
21:48 57.9 °F 53.1 °F 30.08 in SSW 3.2 mph 8.1 mph 84 % 0.00 in
21:53 57.9 °F 53.1 °F 30.08 in SW 4.4 mph 13.0 mph 84 % 0.00 in
21:58 57.8 °F 53.0 °F 30.08 in South 7.7 mph 13.0 mph 84 % 0.00 in
22:03 57.7 °F 52.9 °F 30.08 in WSW 6.6 mph 13.8 mph 84 % 0.00 in
22:08 57.6 °F 53.1 °F 30.08 in SSW 3.4 mph 12.7 mph 85 % 0.00 in
22:13 57.5 °F 53.0 °F 30.08 in SW 5.8 mph 9.0 mph 85 % 0.00 in
22:18 57.4 °F 52.9 °F 30.08 in South 7.3 mph 11.5 mph 85 % 0.00 in
22:23 57.3 °F 52.8 °F 30.08 in SSW 5.1 mph 11.5 mph 85 % 0.00 in
22:28 57.2 °F 53.0 °F 30.07 in SSW 4.1 mph 10.4 mph 86 % 0.00 in
22:33 57.1 °F 53.0 °F 30.07 in SSW 5.9 mph 11.5 mph 86 % 0.00 in
22:38 57.0 °F 52.9 °F 30.07 in SW 3.7 mph 5.8 mph 86 % 0.00 in
22:43 56.9 °F 52.8 °F 30.07 in SSW 5.5 mph 7.0 mph 86 % 0.00 in
22:48 56.8 °F 53.0 °F 30.07 in South 4.5 mph 9.2 mph 87 % 0.00 in
22:53 56.7 °F 52.9 °F 30.07 in SSW 4.3 mph 8.1 mph 87 % 0.00 in
22:58 56.6 °F 52.8 °F 30.07 in South 4.8 mph 8.0 mph 87 % 0.00 in
23:03 56.5 °F 53.0 °F 30.07 in South 4.0 mph 5.8 mph 88 % 0.00 in
23:08 56.4 °F 52.9 °F 30.06 in South 3.6 mph 7.0 mph 88 % 0.00 in
23:13 56.3 °F 52.8 °F 30.06 in SSW 5.6 mph 7.0 mph 88 % 0.00 in
23:18 56.2 °F 52.7 °F 30.05 in SSW 3.8 mph 8.1 mph 88 % 0.00 in
23:23 56.2 °F 53.0 °F 30.05 in SSW 3.8 mph 5.8 mph 89 % 0.00 in
23:29 56.1 °F 52.9 °F 30.05 in WSW 1.3 mph 3.5 mph 89 % 0.00 in
23:34 56.1 °F 52.9 °F 30.05 in SSW 3.1 mph 5.8 mph 89 % 0.00 in
23:39 56.0 °F 52.8 °F 30.05 in South 3.4 mph 4.6 mph 89 % 0.00 in
23:44 56.0 °F 53.1 °F 30.05 in SW 1.0 mph 5.8 mph 90 % 0.00 in
23:49 55.9 °F 53.0 °F 30.05 in SSW 1.5 mph 6.9 mph 90 % 0.00 in
23:54 55.9 °F 53.0 °F 30.05 in SSW 1.8 mph 4.6 mph 90 % 0.00 in
23:59 55.9 °F 53.0 °F 30.05 in SSW 4.0 mph 4.0 mph 90 % 0.00 in
Crab Meadow Weather
Compliments of Weather Underground - 3 mb

Script developed by  Jim McMurry - jmcmurry@mwt.net Adapted for the template by  Wim van der Kuil - Leuven-Template.eu

Astronomy: It takes 16 million horsepower to break loose from the Earth's gravitational pull.